Back to catalog

FENGYUN 1C DEB

AliveSSO
NORAD 30157·DEBRIS·🇨🇳 China

Launched May 10, 1999 from Taiyuan Satellite Launch Center

Loading…

Next Passes (next 24 hours)

TLE

FreshSource: Space-Track

Epoch: Sep 14, 2026, 06:03 UTC

1 30157U 99025TN  26257.25222405  .00004277  00000-0  11449-2 0  9996
2 30157  98.7204   7.3112 0035115  87.7403 302.7491 14.48428125 20520

Track FENGYUN 1C DEB in real time with AllMySat

Download on the App Store